This is the latest recevied weather packets stored in our database for station/object OE5RBO. If no packets are shown the sender has not sent any weather packets the latest 10 day(s).
| Time | Temp. | Humidity | Pressure | Rain* | Wind** | Luminosity | Snow |
|---|---|---|---|---|---|---|---|
| 1787869150 | 21.67° C | 85% | 1013.7 hPa | 0 mm | - | - | - |
| 1787867349 | 22.22° C | 83% | 1013.8 hPa | 0 mm | - | - | - |
| 1787866150 | 22.78° C | 79% | 1013.8 hPa | 0 mm | - | - | - |
| 1787864948 | 23.89° C | 77% | 1013.9 hPa | 0 mm | - | - | - |
| 1787864347 | 23.89° C | 75% | 1013.9 hPa | 0 mm | - | - | - |
| 1787863747 | 23.89° C | 75% | 1013.9 hPa | 0 mm | - | - | - |
| 1787863147 | 23.89° C | 75% | 1014.2 hPa | 0 mm | - | - | - |
| 1787862546 | 24.44° C | 74% | 1014 hPa | 0 mm | - | - | - |
| 1787861946 | 24.44° C | 73% | 1014.2 hPa | 0 mm | - | - | - |
| 1787861345 | 24.44° C | 73% | 1013.9 hPa | 0 mm | - | - | - |
| 1787860745 | 24.44° C | 73% | 1013.9 hPa | 0 mm | - | - | - |
| 1787860145 | 24.44° C | 73% | 1013.8 hPa | 0 mm | - | - | - |
| 1787859544 | 25° C | 73% | 1013.8 hPa | 0 mm | - | - | - |
| 1787858944 | 25° C | 73% | 1013.8 hPa | 0 mm | - | - | - |
| 1787858344 | 25° C | 72% | 1013.8 hPa | 0 mm | - | - | - |
| 1787857743 | 25° C | 72% | 1013.8 hPa | 0 mm | - | - | - |
| 1787857143 | 25° C | 72% | 1013.9 hPa | 0 mm | - | - | - |
| 1787856542 | 25° C | 72% | 1013.9 hPa | 0 mm | - | - | - |
| 1787855942 | 25.56° C | 71% | 1014.2 hPa | 0 mm | - | - | - |
| 1787855342 | 25.56° C | 71% | 1014 hPa | 0 mm | - | - | - |
| 1787854741 | 25.56° C | 70% | 1014 hPa | 0 mm | - | - | - |
| 1787854141 | 25.56° C | 69% | 1013.9 hPa | 0 mm | - | - | - |
| 1787853541 | 26.11° C | 68% | 1013.8 hPa | 0 mm | - | - | - |
| 1787852940 | 26.11° C | 68% | 1013.7 hPa | 0 mm | - | - | - |
| 1787852340 | 26.11° C | 67% | 1013.8 hPa | 0 mm | - | - | - |
* Rain since midnight (hover to see other rain measurements)
** Current wind speed in m/s (hover to see current wind gust speed)